Location: Unspecified
(35.7250°N, 0.0000°E)
Time: 11:05:28
(UTC+00:00)

Vanguard 2 - Pass Details

Date: 18 June 2019
Orbit: 553 x 2938 km, 32.9° (Epoch: 22 July)

Event Time Altitude Azimuth Distance (km) Brightness Sun altitude
Rises 08:46:45 0° 234° (SW) 3,287 10.4 46.4°
Reaches altitude 10° 08:48:52 10° 228° (SW) 2,554 10.0 46.9°
Maximum altitude 08:54:46 49° 155° (SSE) 1,527 10.0 48.1°
Drops below altitude 10° 09:04:28 10° 85° (E) 4,151 12.1 50.0°
Sets 09:08:51 0° 81° (E) 5,551 12.5 50.9°
